Weather History for Minneapolis, MN

Change the Weather History Date:

Thursday, March 22, 2012

  Actual Average Record
Temperature  
Mean Temperature 63 °F 35 °F  
Max Temperature 70 °F 44 °F 71 °F (1945)
Min Temperature 56 °F 27 °F -14 °F (1888)
Degree Days  
Heating Degree Days 2 30  
Month to date heating degree days 399 754  
Since 1 July heating degree days 5162 6544  
Cooling Degree Days 0 0  
Month to date cooling degree days 15 0  
Year to date cooling degree days 15 0  
Growing Degree Days 12 (Base 50)    
Moisture  
Dew Point 58 °F    
Average Humidity 81    
Maximum Humidity 93    
Minimum Humidity 68    
Precipitation  
Precipitation 0.12 in 0.06 in 1.40 in (1952)
Month to date precipitation 1.19 1.26  
Year to date precipitation 3.26 2.93  
Snow  
Snow 0.00 in 0.30 in 13.70 in (1952)
Month to date snowfall 1.3 8.3  
Since 1 July snowfall 22.3 50.0  
Snow Depth 0.00 in    
Sea Level Pressure  
Sea Level Pressure 30.02 in    
Wind  
Wind Speed 8 mph (ENE)    
Max Wind Speed 17 mph    
Max Gust Speed 23 mph    
Visibility 8 miles    
Events Rain    
T = Trace of Precipitation, MM = Missing Value Source: NWS Daily Summary

Daily Weather History Graph

Daily Weather History Graph

Search for Another Location

Airport:

Trip Planner

Search our weather history database for the weather conditions in past years. The results will help you decide how hot, cold, wet, or windy it might be!

Date:

Astronomy

Mar. 22, 2012 Rise Set
Actual Time 7:11 AM CDT 7:28 PM CDT
Civil Twilight 6:42 AM CDT 7:57 PM CDT
Nautical Twilight 6:07 AM CDT 8:32 PM CDT
Astronomical Twilight 5:32 AM CDT 9:07 PM CDT
Moon 6:48 AM CDT (3/22) 7:57 PM CDT (3/22)
Length of Visible Light 13h 15m
Length of Day
12h 17m
New Moon, 0% of the Moon is Illuminated
Mar 22
New Moon
Mar 30
First Quarter
Apr 6
Full
Apr 13
Last Quarter
Apr 21
New

Hourly Weather History & Observations

Time (CDT) Temp. Dew Point Humidity Pressure Visibility Wind Dir Wind Speed Gust Speed Precip Events Conditions
12:53 AM 57.9 °F 55.9 °F 93% 30.05 in 8.0 mi North 5.8 mph - 0.02 in Rain Light Rain
1:53 AM 57.9 °F 55.9 °F 93% 30.05 in 7.0 mi North 5.8 mph - 0.00 in Rain Light Rain
2:53 AM 55.9 °F 55.0 °F 97% 30.07 in 6.0 mi NNE 5.8 mph - 0.00 in   Overcast
3:53 AM 57.0 °F 55.0 °F 93% 30.06 in 7.0 mi NNE 5.8 mph - N/A   Overcast
4:53 AM 57.0 °F 55.0 °F 93% 30.06 in 8.0 mi NE 5.8 mph - N/A   Overcast
5:53 AM 57.0 °F 55.0 °F 93% 30.06 in 8.0 mi East 6.9 mph - 0.01 in   Overcast
6:53 AM 57.9 °F 55.9 °F 93% 30.07 in 8.0 mi NE 6.9 mph - N/A   Overcast
7:53 AM 57.9 °F 55.9 °F 93% 30.07 in 9.0 mi NE 9.2 mph - 0.00 in Rain Light Rain
8:53 AM 57.9 °F 55.9 °F 93% 30.08 in 9.0 mi East 10.4 mph - 0.00 in   Overcast
9:53 AM 59.0 °F 55.9 °F 90% 30.06 in 7.0 mi NE 9.2 mph - 0.02 in Rain Light Rain
10:53 AM 59.0 °F 57.0 °F 93% 30.06 in 9.0 mi ENE 5.8 mph - 0.02 in Rain Light Rain
11:53 AM 61.0 °F 57.9 °F 90% 30.05 in 10.0 mi ENE 8.1 mph - 0.00 in   Overcast
12:53 PM 61.0 °F 57.9 °F 90% 30.04 in 10.0 mi ENE 8.1 mph - N/A   Overcast
1:53 PM 63.0 °F 59.0 °F 87% 30.01 in 10.0 mi ENE 10.4 mph - 0.01 in   Overcast
2:53 PM 66.0 °F 59.0 °F 78% 29.98 in 10.0 mi ENE 9.2 mph - N/A   Overcast
3:53 PM 68.0 °F 57.0 °F 68% 29.96 in 10.0 mi East 13.8 mph - N/A   Overcast
4:53 PM 66.9 °F 57.0 °F 70% 29.96 in 10.0 mi ENE 13.8 mph - N/A   Overcast
5:53 PM 64.9 °F 59.0 °F 81% 29.96 in 8.0 mi East 10.4 mph - 0.01 in Rain Light Rain
6:53 PM 63.0 °F 60.1 °F 90% 29.98 in 4.0 mi ESE 10.4 mph - 0.05 in Rain Light Rain
7:06 PM 62.6 °F 60.8 °F 94% 29.97 in 6.0 mi East 9.2 mph - 0.00 in   Overcast
7:53 PM 63.0 °F 60.1 °F 90% 29.97 in 10.0 mi East 8.1 mph - 0.00 in   Overcast
8:53 PM 63.0 °F 60.1 °F 90% 29.98 in 7.0 mi East 9.2 mph - N/A   Overcast
9:53 PM 63.0 °F 60.1 °F 90% 29.99 in 8.0 mi East 11.5 mph - 0.00 in Rain Light Rain
10:53 PM 61.0 °F 60.1 °F 97% 29.98 in 7.0 mi ESE 8.1 mph - 0.00 in   Overcast
11:00 PM 62.6 °F 60.8 °F 94% 29.98 in 7.0 mi ESE 6.9 mph - N/A   Overcast
11:53 PM 61.0 °F 60.1 °F 97% 29.98 in 5.0 mi ESE 5.8 mph - 0.00 in Rain Light Rain